Meteo pe oră la Dzieczynka

Astăzi, 3 Martie, Miercuri

Timp Temperatura Precipitaţii Vânt Presiune Umiditate
00:00 +4°C° 0 mm 0 m/s 766 mmHg 77%
01:00 +3°C° 0 mm 0 m/s 766 mmHg 78%
02:00 +3°C° 0 mm 0 m/s 765 mmHg 79%
03:00 +4°C° 0 mm 1 m/s 765 mmHg 80%
04:00 +4°C° 0 mm 1 m/s 764 mmHg 81%
05:00 +4°C° 0 mm 1 m/s 764 mmHg 82%
06:00 +4°C° 0 mm 1 m/s 764 mmHg 83%
07:00 +3°C° 0 mm 1 m/s 764 mmHg 84%
08:00 +5°C° 0 mm 1 m/s 764 mmHg 78%
09:00 +7°C° 0 mm 1 m/s 763 mmHg 72%
10:00 +8°C° 0 mm 2 m/s 763 mmHg 66%
11:00 +9°C° 0 mm 2 m/s 762 mmHg 61%
12:00 +12°C° 0 mm 2 m/s 762 mmHg 56%
13:00 +13°C° 0 mm 2 m/s 762 mmHg 51%
14:00 +13°C° 0 mm 2 m/s 761 mmHg 52%
15:00 +13°C° 0 mm 2 m/s 760 mmHg 53%
16:00 +13°C° 0 mm 2 m/s 759 mmHg 54%
17:00 +12°C° 0 mm 2 m/s 759 mmHg 59%
18:00 +9°C° 0 mm 3 m/s 759 mmHg 64%
19:00 +8°C° 0 mm 3 m/s 759 mmHg 69%
20:00 +7°C° 0 mm 3 m/s 758 mmHg 72%
21:00 +7°C° 0 mm 3 m/s 757 mmHg 76%
22:00 +5°C° 0 mm 3 m/s 757 mmHg 79%
23:00 +5°C° 0 mm 4 m/s 756 mmHg 80%

Mâine, 4 Martie, Joi

Timp Temperatura Precipitaţii Vânt Presiune Umiditate
00:00 +5°C° 0 mm 4 m/s 756 mmHg 80%
01:00 +5°C° 0 mm 4 m/s 756 mmHg 81%
02:00 +5°C° 0 mm 5 m/s 755 mmHg 84%
03:00 +5°C° 0 mm 5 m/s 755 mmHg 87%
04:00 +5°C° 0 mm 5 m/s 754 mmHg 90%
05:00 +3°C° 0 mm 5 m/s 754 mmHg 91%
06:00 +3°C° 0 mm 5 m/s 754 mmHg 93%
07:00 +3°C° 0 mm 5 m/s 753 mmHg 94%
08:00 +5°C° 0 mm 5 m/s 753 mmHg 86%
09:00 +5°C° 0 mm 6 m/s 753 mmHg 78%
10:00 +7°C° 0 mm 6 m/s 753 mmHg 70%
11:00 +8°C° 0 mm 6 m/s 752 mmHg 65%
12:00 +9°C° 0 mm 6 m/s 752 mmHg 61%
13:00 +9°C° 0 mm 6 m/s 752 mmHg 56%
14:00 +8°C° 0.2 mm 6 m/s 751 mmHg 61%
15:00 +7°C° 0.2 mm 5 m/s 751 mmHg 66%
16:00 +6°C° 0.2 mm 5 m/s 750 mmHg 71%
17:00 +5°C° 0.1 mm 5 m/s 751 mmHg 74%
18:00 +4°C° 0.1 mm 4 m/s 751 mmHg 76%
19:00 +3°C° 0.1 mm 4 m/s 751 mmHg 78%
20:00 +1°C° 0.1 mm 4 m/s 752 mmHg 82%
21:00 +2°C° 0.1 mm 3 m/s 752 mmHg 86%
22:00 +2°C° 0.1 mm 3 m/s 752 mmHg 90%
23:00 0°C° 0.2 mm 4 m/s 753 mmHg 90%

Poimâine, 5 Martie, Vineri

Timp Temperatura Precipitaţii Vânt Presiune Umiditate
00:00 -1°C° 0.2 mm 5 m/s 753 mmHg 91%
01:00 -1°C° 0.2 mm 5 m/s 753 mmHg 91%
02:00 -2°C° 0.1 mm 5 m/s 754 mmHg 89%
03:00 -2°C° 0.1 mm 5 m/s 754 mmHg 88%
04:00 -3°C° 0.1 mm 4 m/s 754 mmHg 86%
05:00 -3°C° 0 mm 4 m/s 755 mmHg 86%
06:00 -4°C° 0 mm 3 m/s 755 mmHg 85%
07:00 -4°C° 0 mm 3 m/s 756 mmHg 85%
08:00 -2°C° 0 mm 3 m/s 756 mmHg 76%
09:00 -1°C° 0 mm 3 m/s 756 mmHg 67%
10:00 +1°C° 0 mm 3 m/s 757 mmHg 59%
11:00 +1°C° 0 mm 3 m/s 757 mmHg 55%
12:00 +2°C° 0 mm 3 m/s 757 mmHg 51%
13:00 +3°C° 0 mm 3 m/s 757 mmHg 48%
14:00 +3°C° 0.1 mm 4 m/s 758 mmHg 47%
15:00 +1°C° 0.1 mm 4 m/s 758 mmHg 47%
16:00 +1°C° 0.1 mm 4 m/s 758 mmHg 47%
17:00 0°C° 0.1 mm 4 m/s 758 mmHg 52%
18:00 -1°C° 0.1 mm 4 m/s 759 mmHg 57%
19:00 -2°C° 0.1 mm 4 m/s 760 mmHg 63%
20:00 -2°C° 0 mm 4 m/s 760 mmHg 65%
21:00 -2°C° 0 mm 3 m/s 761 mmHg 66%
22:00 -4°C° 0 mm 3 m/s 761 mmHg 68%
23:00 -4°C° 0 mm 3 m/s 762 mmHg 71%

6 Martie, Sâmbătă

Timp Temperatura Precipitaţii Vânt Presiune Umiditate
00:00 -4°C° 0 mm 3 m/s 762 mmHg 73%
01:00 -4°C° 0 mm 3 m/s 763 mmHg 76%
02:00 -4°C° 0 mm 3 m/s 763 mmHg 75%
03:00 -4°C° 0 mm 3 m/s 763 mmHg 74%
04:00 -3°C° 0 mm 2 m/s 763 mmHg 74%
05:00 -4°C° 0 mm 3 m/s 764 mmHg 72%
06:00 -4°C° 0 mm 3 m/s 764 mmHg 71%
07:00 -4°C° 0 mm 3 m/s 764 mmHg 70%
08:00 -2°C° 0 mm 3 m/s 764 mmHg 62%
09:00 -1°C° 0 mm 4 m/s 765 mmHg 54%
10:00 0°C° 0 mm 4 m/s 765 mmHg 47%
11:00 +1°C° 0 mm 5 m/s 765 mmHg 43%
12:00 +1°C° 0 mm 5 m/s 764 mmHg 40%
13:00 +2°C° 0 mm 5 m/s 764 mmHg 37%
14:00 +2°C° 0 mm 5 m/s 764 mmHg 37%
15:00 +2°C° 0 mm 5 m/s 763 mmHg 38%
16:00 +2°C° 0 mm 5 m/s 763 mmHg 39%
17:00 0°C° 0 mm 4 m/s 763 mmHg 44%
18:00 -1°C° 0 mm 4 m/s 762 mmHg 49%
19:00 -2°C° 0 mm 4 m/s 762 mmHg 54%
20:00 -2°C° 0 mm 4 m/s 762 mmHg 54%
21:00 -2°C° 0 mm 4 m/s 762 mmHg 55%
22:00 -2°C° 0 mm 5 m/s 762 mmHg 55%
23:00 -2°C° 0 mm 5 m/s 761 mmHg 55%

7 Martie, Duminică

Timp Temperatura Precipitaţii Vânt Presiune Umiditate
00:00 -2°C° 0 mm 5 m/s 761 mmHg 54%
01:00 -3°C° 0 mm 6 m/s 760 mmHg 54%
02:00 -3°C° 0 mm 6 m/s 760 mmHg 56%
03:00 -3°C° 0 mm 6 m/s 759 mmHg 58%
04:00 -3°C° 0 mm 6 m/s 759 mmHg 60%
05:00 -3°C° 0 mm 6 m/s 759 mmHg 64%
06:00 -3°C° 0 mm 6 m/s 758 mmHg 68%
07:00 -3°C° 0 mm 6 m/s 758 mmHg 73%
08:00 -3°C° 0 mm 6 m/s 758 mmHg 72%
09:00 -2°C° 0 mm 6 m/s 758 mmHg 71%
10:00 -1°C° 0 mm 7 m/s 757 mmHg 71%
11:00 -1°C° 0 mm 7 m/s 757 mmHg 69%
12:00 -1°C° 0 mm 7 m/s 756 mmHg 68%
13:00 0°C° 0 mm 7 m/s 756 mmHg 66%
14:00 0°C° 0 mm 7 m/s 756 mmHg 66%
15:00 +1°C° 0 mm 6 m/s 755 mmHg 65%
16:00 +1°C° 0 mm 6 m/s 755 mmHg 65%
17:00 -1°C° 0 mm 6 m/s 755 mmHg 70%
18:00 -1°C° 0 mm 5 m/s 755 mmHg 74%
19:00 -2°C° 0 mm 4 m/s 755 mmHg 79%
20:00 -2°C° 0.1 mm 4 m/s 755 mmHg 83%
21:00 -2°C° 0.1 mm 4 m/s 756 mmHg 86%
22:00 -2°C° 0.1 mm 4 m/s 756 mmHg 90%
23:00 -2°C° 0.1 mm 3 m/s 756 mmHg 85%

8 Martie, Luni

Timp Temperatura Precipitaţii Vânt Presiune Umiditate
00:00 -4°C° 0.1 mm 3 m/s 756 mmHg 80%
01:00 -3°C° 0.1 mm 2 m/s 757 mmHg 75%
02:00 -4°C° 0 mm 2 m/s 757 mmHg 76%
03:00 -4°C° 0 mm 2 m/s 757 mmHg 77%
04:00 -4°C° 0 mm 2 m/s 757 mmHg 78%
05:00 -4°C° 0 mm 2 m/s 758 mmHg 75%
06:00 -5°C° 0 mm 2 m/s 758 mmHg 72%
07:00 -5°C° 0 mm 2 m/s 759 mmHg 68%
08:00 -4°C° 0 mm 3 m/s 759 mmHg 59%
09:00 -2°C° 0 mm 3 m/s 760 mmHg 51%
10:00 -2°C° 0 mm 4 m/s 760 mmHg 42%
11:00 -1°C° 0 mm 4 m/s 761 mmHg 41%
12:00 -1°C° 0 mm 4 m/s 761 mmHg 40%
13:00 0°C° 0 mm 4 m/s 761 mmHg 40%
14:00 0°C° 0 mm 3 m/s 761 mmHg 41%
15:00 0°C° 0 mm 3 m/s 761 mmHg 43%
16:00 0°C° 0 mm 3 m/s 761 mmHg 44%
17:00 -1°C° 0 mm 3 m/s 761 mmHg 49%
18:00 -2°C° 0 mm 2 m/s 762 mmHg 53%
19:00 -3°C° 0 mm 2 m/s 762 mmHg 57%
20:00 -3°C° 0 mm 2 m/s 762 mmHg 58%
21:00 -4°C° 0 mm 2 m/s 763 mmHg 59%
22:00 -4°C° 0 mm 2 m/s 763 mmHg 59%
23:00 -4°C° 0 mm 2 m/s 763 mmHg 59%
Arată mai mult

Formular de consimțământ

Meteoprog și furnizorii noștri de servicii pot stoca și accesa date personale, precum cookies, identificatori de dispozitiv sau alte tehnologii similare pe dispozitivul dumneavoastră și procesa astfel de date pentru a personaliza conținutul și reclamele, dar și pentru a oferi caracteristici de social media și pentru a analiza traficul.

  • Stocarea și/sau accesarea informațiilor pe dispozitivul dumneavoastră

    Cookies, identificatori de dispozitiv sau alte informații pot fi stocate sau accesate pe dispozitiv în scopurile indicate mai sus.

  • Reclame și conținut personalizat, evaluarea reclamelor și a conținutului, informații despre audiențe și dezvoltarea produselor

    Reclamele și conținutul pot fi personalizate pe baza unui profil. Pot fi adăugate date suplimentare pentru a personaliza mai bine reclamele și conținutul. Performanța reclamelor și conținutului poate fi măsurată. Pot fi obținute informații despre utilizatorii care au văzut reclamele și conținutul. Aceste date pot fi utilizate pentru a dezvolta sau îmbunătăți experiența utilizatorilor, sistemele și software-ul.

Dând clic pe ‘Sunt de acord’, permiteți utilizarea cookie-urilor menționate, a identificatorilor de dispozitiv, balizelor web sau altor tehnologii similare. Setările pot fi modificate din browser-ul dispozitivului dumneavoastră.

În anumite scopuri, interesele legitime pot prima asupra consimțământului. Puteți citi mai multe informații în acest sens în Politica privind Confidențialitatea Datelor și Cookie.